Weather History for Boone, NC

Change the Weather History Date:

Saturday, July 27, 2013

  Actual Average (KGEV) Record (KGEV)
Temperature  
Mean Temperature 66 °F -  
Max Temperature 71 °F 80 °F 88 °F (1981)
Min Temperature 62 °F 59 °F 48 °F (1977)
Cooling Degree Days 2    
Growing Degree Days 16 (Base 50)    
Moisture  
Dew Point 64 °F    
Average Humidity 98    
Maximum Humidity 100    
Minimum Humidity 89    
Precipitation  
Precipitation 2.78 in - - ()
Sea Level Pressure  
Sea Level Pressure 30.09 in    
Wind  
Wind Speed 2 mph (SE)    
Max Wind Speed 8 mph    
Max Gust Speed -    
Visibility 6 miles    
Events Thunderstorm    
Averages and records for this station are not official NWS values.
T = Trace of Precipitation, MM = Missing Value Source: NWS Daily Summary

Daily Weather History Graph

Daily Weather History Graph

Search for Another Location

Airport:

Trip Planner

Search our weather history database for the weather conditions in past years. The results will help you decide how hot, cold, wet, or windy it might be!

Date:

Astronomy

Jul. 27, 2013 Rise Set
Actual Time 6:29 AM EDT 8:35 PM EDT
Civil Twilight 6:01 AM EDT 9:04 PM EDT
Nautical Twilight 5:26 AM EDT 9:39 PM EDT
Astronomical Twilight 4:48 AM EDT 10:17 PM EDT
Moon 11:35 PM EDT (7/27) 11:56 AM EDT (7/27)
Length of Visible Light 15h 03m
Length of Day
14h 06m
Waning Gibbous, 71% of the Moon is Illuminated
Jul 27
Waning Gibbous
Jul 29
Last Quarter
Aug 6
New
Aug 14
First Quarter
Aug 20
Full

Hourly Weather History & Observations

Time (EDT) Temp. Dew Point Humidity Pressure Visibility Wind Dir Wind Speed Gust Speed Precip Events Conditions
12:15 AM 66.0 °F 64.8 °F 96% 30.16 in 4.0 mi West 4.6 mph - 0.21 in   Overcast
12:35 AM 64.9 °F 64.8 °F 99% 30.16 in 5.0 mi Calm Calm - 0.21 in   Mostly Cloudy
12:55 AM 66.6 °F 64.9 °F 95% 30.15 in 7.0 mi Calm Calm - 0.32 in   Mostly Cloudy
1:15 AM 65.8 °F 65.5 °F 99% 30.15 in 5.0 mi Calm Calm - N/A   Mostly Cloudy
1:35 AM 66.2 °F 65.7 °F 98% 30.14 in 3.0 mi NNW 3.5 mph - 0.09 in   Overcast
1:55 AM 65.5 °F 65.3 °F 99% 30.14 in 3.0 mi West 5.8 mph - 0.22 in Thunderstorm Thunderstorm
2:15 AM 65.3 °F 63.5 °F 94% 30.14 in 4.0 mi SW 5.8 mph - 0.07 in   Overcast
2:35 AM 63.5 °F 62.6 °F 97% 30.13 in 5.0 mi South 5.8 mph - 0.12 in   Mostly Cloudy
2:55 AM 63.3 °F 63.3 °F 100% 30.12 in 7.0 mi Calm Calm - 0.13 in Thunderstorm Scattered Clouds
3:15 AM 62.6 °F 62.6 °F 100% 30.12 in 3.0 mi Calm Calm - 0.09 in   Overcast
3:35 AM 62.6 °F 62.6 °F 100% 30.12 in 4.0 mi Calm Calm - 0.19 in   Scattered Clouds
3:55 AM 62.6 °F 62.6 °F 100% 30.11 in 2.0 mi North 3.5 mph - 0.43 in Thunderstorm Overcast
4:15 AM 62.8 °F 62.8 °F 100% 30.11 in 4.0 mi Calm Calm - 0.03 in Thunderstorm Thunderstorm
4:35 AM 62.8 °F 62.8 °F 100% 30.10 in 2.0 mi Calm Calm - 0.09 in   Overcast
4:55 AM 62.6 °F 62.6 °F 100% 30.10 in 1.8 mi Calm Calm - 0.16 in   Mostly Cloudy
5:15 AM 63.1 °F 63.1 °F 100% 30.10 in 5.0 mi Calm Calm - N/A Thunderstorm Scattered Clouds
5:35 AM 63.0 °F 63.0 °F 100% 30.10 in 4.0 mi Calm Calm - N/A   Scattered Clouds
5:55 AM 63.0 °F 63.0 °F 100% 30.10 in 5.0 mi Calm Calm - N/A   Scattered Clouds
6:15 AM 62.8 °F 62.8 °F 100% 30.10 in 3.0 mi Calm Calm - 0.01 in   Mostly Cloudy
6:35 AM 63.0 °F 63.0 °F 100% 30.11 in 5.0 mi Calm Calm - 0.01 in Thunderstorm Mostly Cloudy
6:55 AM 63.5 °F 63.5 °F 100% 30.11 in 10.0 mi Calm Calm - 0.01 in Thunderstorm Mostly Cloudy
7:15 AM 63.5 °F 63.5 °F 100% 30.11 in 5.0 mi SSE 3.5 mph - N/A Thunderstorm Thunderstorm
7:35 AM 63.1 °F 63.1 °F 100% 30.11 in 7.0 mi Calm Calm - N/A   Mostly Cloudy
7:55 AM 63.5 °F 63.5 °F 100% 30.11 in 2.0 mi Calm Calm - 0.05 in   Overcast
8:15 AM 63.5 °F 63.5 °F 100% 30.11 in 4.0 mi Calm Calm - N/A   Mostly Cloudy
8:35 AM 63.3 °F 63.3 °F 100% 30.11 in 7.0 mi Calm Calm - N/A Thunderstorm Overcast
8:55 AM 63.7 °F 63.7 °F 100% 30.10 in 7.0 mi SE 4.6 mph - 0.01 in Thunderstorm Overcast
9:15 AM 63.1 °F 63.1 °F 100% 30.10 in 0.2 mi ESE 4.6 mph - N/A Thunderstorm Thunderstorm
9:35 AM 62.6 °F 62.6 °F 100% 30.10 in 0.5 mi Calm Calm - 0.32 in Thunderstorm Thunderstorm
9:55 AM 63.0 °F 63.0 °F 100% 30.11 in 1.8 mi Calm Calm - 0.41 in Thunderstorm Thunderstorm
10:15 AM 63.3 °F 63.3 °F 100% 30.11 in 1.0 mi Calm Calm - 0.14 in Thunderstorm Overcast
10:35 AM 63.5 °F 63.5 °F 100% 30.12 in 2.5 mi Calm Calm - 0.18 in Thunderstorm Thunderstorm
10:55 AM 63.9 °F 63.9 °F 100% 30.11 in 4.0 mi Calm Calm - 0.21 in   Scattered Clouds
11:15 AM 64.2 °F 64.2 °F 100% 30.11 in 4.0 mi Calm Calm - N/A   Scattered Clouds
11:35 AM 65.1 °F 65.1 °F 100% 30.10 in 4.0 mi Calm Calm - N/A   Mostly Cloudy
11:55 AM 65.7 °F 65.7 °F 100% 30.10 in 5.0 mi Calm Calm - N/A   Mostly Cloudy
12:15 PM 65.8 °F 65.3 °F 98% 30.10 in 7.0 mi Calm Calm - N/A   Mostly Cloudy
12:35 PM 66.6 °F 66.2 °F 99% 30.10 in 7.0 mi Calm Calm - N/A   Scattered Clouds
12:55 PM 67.1 °F 66.4 °F 98% 30.10 in 10.0 mi SE 4.6 mph - N/A   Scattered Clouds
1:15 PM 69.1 °F 67.8 °F 96% 30.09 in 10.0 mi SE 5.8 mph - N/A   Scattered Clouds
1:35 PM 71.4 °F 68.5 °F 91% 30.08 in 10.0 mi SE 8.1 mph - N/A   Scattered Clouds
1:55 PM 68.2 °F 65.8 °F 92% 30.07 in 10.0 mi ESE 3.5 mph - N/A   Mostly Cloudy
2:15 PM 71.1 °F 67.6 °F 89% 30.06 in 10.0 mi ESE 3.5 mph - N/A   Scattered Clouds
2:35 PM 69.1 °F 66.4 °F 91% 30.06 in 10.0 mi Calm Calm - N/A   Mostly Cloudy
2:55 PM 70.3 °F 67.8 °F 92% 30.06 in 10.0 mi ESE 4.6 mph - N/A   Scattered Clouds
3:15 PM 69.6 °F 66.7 °F 91% 30.06 in 10.0 mi East 3.5 mph - N/A   Scattered Clouds
3:35 PM 70.2 °F 67.1 °F 90% 30.05 in 10.0 mi East 4.6 mph - N/A   Mostly Cloudy
3:55 PM 69.6 °F 67.1 °F 92% 30.05 in 10.0 mi SSE 6.9 mph - N/A   Mostly Cloudy
4:15 PM 68.2 °F 66.9 °F 96% 30.04 in 10.0 mi Calm Calm - N/A   Scattered Clouds
4:35 PM 68.2 °F 67.1 °F 96% 30.04 in 10.0 mi SE 4.6 mph - N/A   Mostly Cloudy
4:55 PM 68.7 °F 66.4 °F 92% 30.05 in 10.0 mi ESE 5.8 mph - N/A   Mostly Cloudy
5:15 PM 67.5 °F 66.4 °F 96% 30.04 in 10.0 mi ESE 8.1 mph - N/A   Mostly Cloudy
5:35 PM 67.8 °F 66.2 °F 95% 30.04 in 10.0 mi ESE 6.9 mph - N/A   Mostly Cloudy
5:55 PM 68.0 °F 66.6 °F 95% 30.04 in 10.0 mi East 4.6 mph - N/A   Scattered Clouds
6:15 PM 67.3 °F 66.2 °F 96% 30.04 in 10.0 mi Calm Calm - N/A   Mostly Cloudy
6:35 PM 67.3 °F 66.7 °F 98% 30.05 in 10.0 mi Calm Calm - N/A   Mostly Cloudy
6:55 PM 66.4 °F 65.8 °F 98% 30.05 in 2.5 mi SE 4.6 mph - 0.04 in   Overcast
7:15 PM 65.8 °F 65.8 °F 100% 30.05 in 4.0 mi Calm Calm - 0.03 in   Mostly Cloudy
7:35 PM 65.5 °F 65.5 °F 100% 30.05 in 4.0 mi Calm Calm - 0.03 in   Mostly Cloudy
7:55 PM 63.7 °F 63.7 °F 100% 30.05 in 5.0 mi SE 3.5 mph - 0.04 in Thunderstorm Thunderstorm
8:15 PM 63.0 °F 63.0 °F 100% 30.06 in 3.0 mi Calm Calm - 0.03 in   Unknown
8:35 PM 62.8 °F 62.8 °F 100% 30.06 in 2.5 mi Calm Calm - 0.09 in   Overcast
8:55 PM 62.8 °F 62.8 °F 100% 30.07 in 0.8 mi Calm Calm - 0.45 in   Overcast
9:15 PM 62.6 °F 62.6 °F 100% 30.06 in 2.5 mi SSE 6.9 mph - 0.15 in   Overcast
9:35 PM 62.4 °F 62.4 °F 100% 30.07 in 7.0 mi Calm Calm - 0.24 in   Mostly Cloudy
9:55 PM 62.4 °F 62.4 °F 100% 30.07 in 4.0 mi East 3.5 mph - 0.28 in   Mostly Cloudy
10:15 PM 62.2 °F 62.2 °F 100% 30.07 in 4.0 mi Calm Calm - 0.02 in   Mostly Cloudy
10:35 PM 62.8 °F 62.8 °F 100% 30.08 in 10.0 mi Calm Calm - 0.02 in   Mostly Cloudy
10:55 PM 62.4 °F 62.4 °F 100% 30.07 in 7.0 mi Calm Calm - 0.02 in   Overcast
11:35 PM 62.6 °F 62.6 °F 100% 30.07 in 7.0 mi Calm Calm - N/A   Overcast
11:55 PM 62.6 °F 62.6 °F 100% 30.06 in 3.0 mi Calm Calm - N/A   Overcast